Weather History for KVEL - June, 2013

Change the Weather History Date:

Saturday, June 29, 2013

  Actual Average Record
Temperature  
Mean Temperature 78 °F 69 °F  
Max Temperature 94 °F 85 °F 98 °F (1970)
Min Temperature 61 °F 54 °F 30 °F (1945)
Degree Days  
Heating Degree Days 0 1  
Month to date heating degree days 15 72  
Since 1 June heating degree days 15 72  
Since 1 July heating degree days 7583 7220  
Cooling Degree Days 13 5  
Month to date cooling degree days 157 78  
Year to date cooling degree days 165 87  
Since 1 June cooling degree days 157 78  
Growing Degree Days 27 (Base 50)    
Moisture  
Dew Point 42 °F    
Average Humidity 34    
Maximum Humidity 52    
Minimum Humidity 15    
Precipitation  
Precipitation T in 0.02 in 0.07 in (1962)
Month to date precipitation T 0.78  
Year to date precipitation 3.79 4.19  
Sea Level Pressure  
Sea Level Pressure 29.95 in    
Wind  
Wind Speed 8 mph (NW)    
Max Wind Speed 31 mph    
Max Gust Speed 41 mph    
Visibility 10 miles    
Events Rain    
T = Trace of Precipitation, MM = Missing Value Source: NWS Daily Summary

Daily Weather History Graph

Daily Weather History Graph

Search for Another Location

Airport or City:

Trip Planner

Search our weather history database for the weather conditions in past years. The results will help you decide how hot, cold, wet, or windy it might be!

Date:

Astronomy

Jun. 29, 2013 Rise Set
Actual Time 5:50 AM MDT 8:52 PM MDT
Civil Twilight 5:17 AM MDT 9:25 PM MDT
Nautical Twilight 4:35 AM MDT 10:07 PM MDT
Astronomical Twilight 3:46 AM MDT 10:56 PM MDT
Moon 12:21 AM MDT (6/29) 1:07 PM MDT (6/29)
Length of Visible Light 16h 07m
Length of Day
15h 01m
Waning Gibbous, 55% of the Moon is Illuminated
Jun 29
Waning Gibbous
Jun 29
Last Quarter
Jul 8
New
Jul 15
First Quarter
Jul 22
Full

Hourly Weather History & Observations

Time (MDT) Temp. Dew Point Humidity Pressure Visibility Wind Dir Wind Speed Gust Speed Precip Events Conditions
12:53 AM 75.9 °F 36.0 °F 23% 29.90 in 10.0 mi Variable 3.5 mph - N/A   Clear
1:53 AM 70.0 °F 39.9 °F 33% 29.92 in 10.0 mi Calm Calm - N/A   Clear
2:53 AM 68.0 °F 42.1 °F 39% 29.92 in 10.0 mi WNW 5.8 mph - N/A   Clear
3:53 AM 66.9 °F 43.0 °F 42% 29.92 in 10.0 mi West 4.6 mph - N/A   Clear
4:53 AM 63.0 °F 45.0 °F 52% 29.94 in 10.0 mi Calm Calm - N/A   Clear
5:53 AM 63.0 °F 43.0 °F 48% 29.97 in 10.0 mi Calm Calm - N/A   Clear
6:53 AM 64.9 °F 46.9 °F 52% 30.00 in 10.0 mi NW 4.6 mph - N/A   Clear
7:53 AM 73.9 °F 44.1 °F 34% 29.98 in 10.0 mi NW 3.5 mph - N/A   Clear
8:53 AM 79.0 °F 45.0 °F 30% 29.98 in 10.0 mi SW 4.6 mph - N/A   Clear
9:53 AM 82.9 °F 45.0 °F 26% 29.96 in 10.0 mi SSW 4.6 mph - N/A   Clear
10:53 AM 87.1 °F 46.0 °F 24% 29.95 in 10.0 mi Variable 3.5 mph - N/A   Clear
11:53 AM 91.0 °F 43.0 °F 19% 29.92 in 10.0 mi Calm Calm - N/A   Clear
12:53 PM 90.0 °F 42.1 °F 19% 29.92 in 10.0 mi ESE 4.6 mph - N/A   Clear
1:53 PM 91.0 °F 39.9 °F 17% 29.91 in 10.0 mi NNW 10.4 mph - N/A   Clear
2:53 PM 88.0 °F 34.0 °F 15% 29.90 in 10.0 mi North 21.9 mph 31.1 mph N/A   Clear
3:53 PM 86.0 °F 35.1 °F 16% 29.92 in 10.0 mi North 15.0 mph 31.1 mph N/A   Clear
4:34 PM 84.2 °F 37.4 °F 19% 30.17 in 10.0 mi WNW 18.4 mph 28.8 mph N/A   Clear
4:53 PM 82.9 °F 39.0 °F 21% 30.01 in 10.0 mi West 20.7 mph 32.2 mph 0.00 in Rain Light Rain
5:53 PM 84.0 °F 41.0 °F 22% 29.90 in 10.0 mi NNW 9.2 mph - 0.00 in   Clear
6:53 PM 84.9 °F 41.0 °F 21% 29.90 in 10.0 mi North 29.9 mph 41.4 mph N/A   Clear
7:53 PM 82.0 °F 42.1 °F 24% 29.88 in 10.0 mi NE 11.5 mph 25.3 mph N/A   Clear
8:33 PM 80.6 °F 42.8 °F 26% 30.12 in 10.0 mi North 16.1 mph - N/A   Clear
8:53 PM 79.0 °F 42.1 °F 27% 29.91 in 10.0 mi Variable 5.8 mph - N/A   Clear
9:53 PM 78.1 °F 42.1 °F 28% 29.91 in 10.0 mi Variable 3.5 mph - N/A   Clear
10:53 PM 68.0 °F 46.9 °F 47% 29.93 in 10.0 mi WNW 4.6 mph - N/A   Clear
11:53 PM 66.0 °F 45.0 °F 47% 29.93 in 10.0 mi West 5.8 mph - N/A   Clear